This is the latest recevied weather packets stored in our database for station/object N0QV. If no packets are shown the sender has not sent any weather packets the latest 10 day(s).
| Time | Temp. | Humidity | Pressure | Rain* | Wind** | Luminosity | Snow |
|---|---|---|---|---|---|---|---|
| 1778137439 | 3.89° C | 64% | 1014.7 hPa | 0 mm | - | 0 W/m² | - |
| 1778137136 | 3.89° C | 62% | 1014.4 hPa | 0 mm | - | 0 W/m² | - |
| 1778136832 | 3.89° C | 63% | 1014.5 hPa | 0 mm | - | 0 W/m² | - |
| 1778136529 | 3.89° C | 64% | 1014.9 hPa | 0 mm | - | 0 W/m² | - |
| 1778136228 | 3.89° C | 68% | 1014.8 hPa | 0 mm | - | 0 W/m² | - |
| 1778135925 | 3.89° C | 67% | 1014.7 hPa | 0 mm | - | 0 W/m² | - |
| 1778135622 | 3.89° C | 66% | 1015 hPa | 0 mm | - | 0 W/m² | - |
| 1778135319 | 3.89° C | 66% | 1014.8 hPa | 0 mm | - | 0 W/m² | - |
| 1778135015 | 3.89° C | 65% | 1014.8 hPa | 0 mm | - | 0 W/m² | - |
| 1778134714 | 3.89° C | 66% | 1014.9 hPa | 0 mm | - | 0 W/m² | - |
| 1778134411 | 3.89° C | 66% | 1015.2 hPa | 0 mm | - | 0 W/m² | - |
| 1778134110 | 3.89° C | 66% | 1015.1 hPa | 0 mm | - | 0 W/m² | - |
| 1778133806 | 3.89° C | 66% | 1015 hPa | 0 mm | - | 0 W/m² | - |
| 1778133503 | 3.89° C | 64% | 1014.9 hPa | 0 mm | - | 0 W/m² | - |
| 1778133198 | 3.89° C | 66% | 1015 hPa | 0 mm | - | 0 W/m² | - |
| 1778132895 | 3.89° C | 66% | 1015 hPa | 0 mm | - | 0 W/m² | - |
| 1778132591 | 3.89° C | 66% | 1015 hPa | 0 mm | - | 0 W/m² | - |
| 1778132288 | 3.89° C | 67% | 1015 hPa | 0 mm | - | 0 W/m² | - |
| 1778131986 | 3.89° C | 67% | 1014.8 hPa | 0 mm | - | 0 W/m² | - |
| 1778131685 | 3.89° C | 67% | 1014.9 hPa | 0 mm | - | 0 W/m² | - |
| 1778131381 | 3.89° C | 64% | 1015.2 hPa | 0 mm | - | 0 W/m² | - |
| 1778131079 | 3.89° C | 65% | 1014.9 hPa | 0 mm | - | 0 W/m² | - |
| 1778130776 | 3.89° C | 64% | 1015.1 hPa | 0 mm | - | 0 W/m² | - |
| 1778130473 | 3.33° C | 65% | 1014.9 hPa | 0 mm | - | 0 W/m² | - |
| 1778130169 | 3.89° C | 66% | 1015 hPa | 0 mm | - | 0 W/m² | - |
* Rain latest hour (hover to see other rain measurements)
** Current wind speed in m/s (hover to see current wind gust speed)